sat.trackr.live / text

‹ back to catalog

INTELSAT 35E (IS-35E)

NORAD 42818 · 2017-041A

PAYLOAD ACTIVE UNKNOWN

§ Identity

Operator
Country
ITSO
Launch date
2017-07-05
Launch site
AFETR
Launch vehicle
Mass (kg)
RCS (m²)

Purposes: comms

External: N2YO · Heavens-Above · Gunter

§ Orbital elements

Epoch: 2026-09-13T01:42:52.117056Z

Period
1,436.11 min
Inclination
0.0182°
Eccentricity
0.0002072
Mean motion
1.00271022 rev/d
Perigee alt
35,778.1 km
Apogee alt
35,795.5 km
Semi-major
42,164.9 km
B*
0.0000e+0
RAAN
126.9708°
Arg perigee
49.8316°
Mean anomaly
166.4908°
Rev number
3,369

§ Raw data

INTELSAT 35E (IS-35E)1 42818U 17041A   26256.07143654 -.00000250  00000+0  00000+0 0  99932 42818   0.0182 126.9708 0002072  49.8316 166.4908  1.00271022 33691

JSON: /api/v1/satellites/42818 · /tle

For live sub-satellite position, see the globe view (requires WebGL).

§ Visibility from observer

Set your observer location to see the next 7 days of passes ≥ 10°. The values pass through the URL so the page stays shareable.

No JS? Fill the form by hand. The geolocation button needs JavaScript.